Weather in Yuryevo

Russia / Novgorod Oblast     58°02′34″N   31°35′13″E
temp.,
°C
wind,
m/s
gust,
m/s
humid.,
%
clouds,
%
prec.,
mm/h
press.,
hPa
HPBL,
m
3 march, wed
wed300:000nw411899 0.1 1019437
03:00−1wnw4119111 0.1 1020418
06:00−1w4119429 0.0 1018454
09:00−1w5118861 0.0 1018602
12:00+1w598094 0.0 1016783
15:00+3w5107096 0.0 10141168
18:00+2w41278100 0.0 1011783
21:00+2w51489100 0.0 1009771
4 march, thu
thu400:00+2w61392100 0.0 1006796
03:00+2wnw51190100 0.1 1005852
06:00−1nw4974100 0.4 1004672
09:00−2nnw3672100 0.4 1004472
12:00−1nnw3564100 0.0 1003635
15:000nnw245975 0.0 1003903
18:00−1nw12700 0.0 100323
21:00−3nw599336 0.5 1004586
5 march, fri
fri500:00−4nw5987100 0.6 1005697
03:00−4nnw4879100 0.9 1007753
06:00−5nw477997 0.0 1008717
09:00−6nw477793 0.0 1009821
12:00−4nw4667100 0.0 1010990
15:00−3nw4559100 0.1 10121230
18:00−5nnw3675100 0.1 1013794
21:00−6nnw377786 0.1 1016476
6 march, sat
sat600:00−7nnw128017 0.0 1017106
03:00−7w248141 0.0 1018309
06:00−7wnw278592 0.0 1018395
09:00−7w368564 0.0 1018428
12:00−4wsw466513 0.0 1017762
15:00−2sw6105026 0.0 10141310
18:00−3sw7145795 0.0 10091352
21:00−3sw8168998 0.9 10031438
7 march, sun
sun700:00−2wsw91786100 0.9 9981258
03:00−1wsw81788100 1.3 9931211
06:00−4nw81671100 1.9 9911111
09:00−5sw4125596 1.9 9921359
12:00−4wnw91852100 0.6 9912371
15:00−3w81676100 0.8 9901726
18:00−5wnw71477100 1.6 9911401
21:00−6nw61192100 2.1 9951024